Waarnemingen

Advertentie
Mijn weer
Svanberga, Zweden (2490): temperatuur & dauwpunt: 22.05.2018 12:00:00 - 28.05.2018 12:00:00 (CEST)Svanberga, Zweden (2490): windsnelheid & windstoten: 22.05.2018 12:00:00 - 28.05.2018 12:00:00 (CEST)Svanberga, Zweden (2490): windrichting: 22.05.2018 12:00:00 - 28.05.2018 12:00:00 (CEST)Svanberga, Zweden (2490): luchtdruk: 22.05.2018 12:00:00 - 28.05.2018 12:00:00 (CEST)Svanberga, Zweden (2490): zicht: 22.05.2018 12:00:00 - 28.05.2018 12:00:00 (CEST)Svanberga, Zweden (2490): neerslag: 22.05.2018 12:00:00 - 28.05.2018 12:00:00 (CEST)
Datum & Tijd tt [°C] td [°C] ff [km/u] ff [kn] fx [km/u] fx [kn] dd ppp [hPa] vv [km] rr [mm]
28.05.2018 12:00:00 - - - - - - - - - -
28.05.2018 11:00:00 21,1 5,8 8 4 19 10 Z 1031,1 29 0,0
28.05.2018 10:00:00 19,6 8,6 7 4 14 8 ZO 1031,2 31 0,0
28.05.2018 09:00:00 17,7 9,6 3 1 9 5 N 1031,4 32 0,0
28.05.2018 08:00:00 14,9 8,1 4 2 8 4 O 1031,6 36 0,0
28.05.2018 07:00:00 12,0 6,5 5 3 7 4 O 1031,5 32 0,0
28.05.2018 06:00:00 10,3 6,6 3 1 9 5 NNO 1031,4 42 0,0
28.05.2018 05:00:00 7,2 5,5 0 0 8 4 N 1031,5 43 0,0
28.05.2018 04:00:00 5,8 4,6 0 0 7 4 N 1031,5 40 0,0
28.05.2018 03:00:00 4,1 3,8 3 1 8 5 NNW 1031,8 46 0,0
28.05.2018 02:00:00 4,9 2,6 4 2 8 5 NNW 1031,7 43 0,0
28.05.2018 01:00:00 4,1 2,1 3 2 8 4 N 1031,8 47 0,0
28.05.2018 00:00:00 4,8 1,8 0 0 8 4 N 1031,5 50 0,0
27.05.2018 23:00:00 9,4 1,1 3 2 9 5 N 1031,1 48 0,0
27.05.2018 22:00:00 10,7 0,4 3 2 14 8 NO 1031,3 50 0,0
27.05.2018 21:00:00 11,2 -0,3 6 4 19 11 NO 1031,3 50 0,0
27.05.2018 20:00:00 13,2 -0,8 12 6 21 12 NO 1031,3 42 0,0
27.05.2018 19:00:00 14,9 0,7 8 5 23 13 NO 1031,2 34 0,0
27.05.2018 18:00:00 15,3 -0,5 11 6 28 15 NO 1031,4 35 0,0
27.05.2018 17:00:00 16,8 0,0 14 7 32 17 NO 1031,6 28 0,0
27.05.2018 16:00:00 18,0 1,1 17 9 34 18 NO 1031,6 34 0,0
27.05.2018 15:00:00 18,2 1,7 17 9 35 19 NO 1031,9 31 0,0
27.05.2018 14:00:00 17,9 1,4 16 8 34 18 NO 1032,1 29 0,0
27.05.2018 13:00:00 19,1 3,7 13 7 27 15 NO 1032,0 32 0,0
27.05.2018 12:00:00 18,9 6,4 9 5 23 12 NNO 1031,9 36 0,0
27.05.2018 11:00:00 19,5 6,2 8 4 17 9 N 1031,4 32 0,0
27.05.2018 10:00:00 19,0 7,1 5 3 17 9 N 1031,2 43 0,0
27.05.2018 09:00:00 18,1 9,2 6 3 18 10 NNO 1030,8 32 0,0
27.05.2018 08:00:00 16,0 7,5 4 2 12 6 NNO 1030,6 34 0,0
27.05.2018 07:00:00 13,9 8,1 5 3 14 8 NO 1030,3 33 0,0
27.05.2018 06:00:00 12,3 7,8 4 2 11 6 N 1030,1 37 0,0
27.05.2018 05:00:00 10,0 8,1 3 2 9 5 N 1030,0 32 0,0
27.05.2018 04:00:00 9,2 8,3 5 3 11 6 NW 1029,7 21 0,0
27.05.2018 03:00:00 9,4 8,5 3 2 14 8 NW 1029,6 21 0,0
27.05.2018 02:00:00 9,7 8,6 5 3 12 7 NW 1029,7 23 0,0
27.05.2018 01:00:00 10,5 8,8 5 3 11 6 NW 1029,4 27 0,0
27.05.2018 00:00:00 6,3 5,3 3 2 8 4 WNW 1029,0 35 0,0
26.05.2018 23:00:00 6,4 4,4 0 0 5 3 N 1028,8 50 0,0
26.05.2018 22:00:00 7,7 4,5 0 0 2 1 N 1028,7 50 0,0
26.05.2018 21:00:00 14,3 3,7 4 2 14 8 O 1028,2 50 0,0
26.05.2018 20:00:00 18,4 3,4 6 3 13 7 NO 1028,1 48 0,0
26.05.2018 19:00:00 20,1 2,9 9 5 18 10 ONO 1027,7 40 0,0
26.05.2018 18:00:00 21,2 0,9 8 4 21 11 NNO 1027,7 38 0,0
26.05.2018 17:00:00 22,0 3,1 15 8 24 13 ONO 1027,6 27 0,0
26.05.2018 16:00:00 22,9 4,9 12 6 23 13 O 1027,4 29 0,0
26.05.2018 15:00:00 23,9 5,7 6 3 18 10 O 1027,6 31 0,0
26.05.2018 14:00:00 24,1 1,7 5 3 10 5 NO 1027,8 38 0,0
26.05.2018 13:00:00 22,8 3,3 6 3 12 7 WNW 1028,2 33 0,0
26.05.2018 12:00:00 22,1 6,3 4 2 13 7 WZW 1028,3 38 0,0
26.05.2018 11:00:00 20,5 4,9 5 3 10 6 W 1028,8 35 0,0
26.05.2018 10:00:00 19,4 5,1 3 2 9 5 NO 1028,8 32 0,0
26.05.2018 09:00:00 17,8 2,5 5 3 8 5 NW 1028,7 31 0,0
26.05.2018 08:00:00 16,3 7,0 0 0 5 3 N 1028,9 37 0,0
26.05.2018 07:00:00 13,2 10,0 0 0 3 1 N 1028,9 35 0,0
26.05.2018 06:00:00 8,8 7,1 0 0 6 4 N 1028,8 39 0,0
26.05.2018 05:00:00 4,3 4,3 0 0 2 1 N 1029,0 13 0,0
26.05.2018 04:00:00 1,4 1,4 0 0 2 1 N 1029,1 8 0,0
26.05.2018 03:00:00 2,0 2,0 0 0 1 1 N 1029,2 11 0,0
26.05.2018 02:00:00 2,2 2,2 0 0 2 1 N 1029,2 18 0,0
26.05.2018 01:00:00 3,7 3,0 0 0 5 3 N 1029,0 43 0,0
26.05.2018 00:00:00 4,1 3,4 0 0 6 3 N 1029,1 48 0,0
25.05.2018 23:00:00 5,7 4,0 3 1 6 3 ZO 1028,7 50 0,0
25.05.2018 22:00:00 7,6 5,4 2 1 4 2 ZZO 1028,6 50 0,0
25.05.2018 21:00:00 12,7 6,7 3 2 8 4 ZO 1028,4 50 0,0
25.05.2018 20:00:00 17,8 3,3 3 2 16 9 ZZO 1028,1 47 0,0
25.05.2018 19:00:00 18,5 3,9 6 3 19 11 ZZO 1028,3 45 0,0
25.05.2018 18:00:00 20,0 4,1 6 4 19 10 Z 1028,4 44 0,0
25.05.2018 17:00:00 20,0 3,2 9 5 22 12 ZO 1028,7 35 0,0
25.05.2018 16:00:00 21,2 5,9 9 5 24 13 Z 1028,9 31 0,0
25.05.2018 15:00:00 21,4 4,5 10 5 23 13 ZZO 1029,0 40 0,0
25.05.2018 14:00:00 21,3 5,6 11 6 26 14 ZO 1029,1 31 0,0
25.05.2018 13:00:00 21,8 4,8 11 6 26 14 ZO 1029,3 32 0,0
25.05.2018 12:00:00 21,7 5,2 14 8 25 13 ZO 1029,6 30 0,0
25.05.2018 11:00:00 21,5 6,2 10 5 21 12 ZZO 1029,4 31 0,0
25.05.2018 10:00:00 20,9 7,2 8 4 20 11 ZZW 1029,3 30 0,0
25.05.2018 09:00:00 19,2 3,8 6 4 16 8 Z 1029,5 39 0,0
25.05.2018 08:00:00 17,8 4,4 3 2 11 6 Z 1029,6 43 0,0
25.05.2018 07:00:00 14,7 6,0 2 1 9 5 Z 1029,7 34 0,0
25.05.2018 06:00:00 9,7 7,3 2 1 5 3 ZZO 1029,7 43 0,0
25.05.2018 05:00:00 5,2 4,3 0 0 3 2 N 1029,6 47 0,0
25.05.2018 04:00:00 2,1 1,8 0 0 3 2 N 1029,7 48 0,0
25.05.2018 03:00:00 2,3 1,9 0 0 2 1 N 1029,6 50 0,0
25.05.2018 02:00:00 3,1 2,4 0 0 3 1 N 1029,5 50 0,0
25.05.2018 01:00:00 4,4 3,1 0 0 4 2 N 1029,3 50 0,0
25.05.2018 00:00:00 5,8 3,1 0 0 5 3 N 1029,0 50 0,0
24.05.2018 23:00:00 7,0 3,2 2 1 7 4 ZZO 1029,0 50 0,0
24.05.2018 22:00:00 9,7 3,7 3 2 8 4 ZZO 1029,0 50 0,0
24.05.2018 21:00:00 13,8 2,1 5 3 10 5 ZO 1028,8 50 0,0
24.05.2018 20:00:00 17,7 -1,0 5 3 15 8 ZO 1028,8 44 0,0
24.05.2018 19:00:00 19,1 -1,4 8 4 16 8 OZO 1028,7 34 0,0
24.05.2018 18:00:00 19,8 -1,4 11 6 16 8 ONO 1029,1 44 0,0
24.05.2018 17:00:00 20,1 -1,7 8 5 18 10 NO 1029,5 42 0,0
24.05.2018 16:00:00 20,6 -1,9 10 5 17 9 ONO 1030,0 38 0,0
24.05.2018 15:00:00 20,3 -0,4 8 4 16 9 NO 1030,5 37 0,0
24.05.2018 14:00:00 19,9 -1,3 7 4 20 11 ONO 1030,9 31 0,0
24.05.2018 13:00:00 19,6 -2,1 8 4 22 12 NO 1031,4 37 0,0
24.05.2018 12:00:00 18,9 -1,0 7 4 21 11 O 1031,6 36 0,0
24.05.2018 11:00:00 18,5 0,1 6 3 18 10 O 1032,0 39 0,0
24.05.2018 10:00:00 17,0 1,0 9 5 14 8 O 1032,2 44 0,0
24.05.2018 09:00:00 15,7 1,4 8 4 14 7 ONO 1032,1 34 0,0
24.05.2018 08:00:00 13,0 3,9 4 2 8 4 ONO 1032,1 44 0,0
24.05.2018 07:00:00 10,1 4,7 3 2 7 4 NNW 1032,0 44 0,0
24.05.2018 06:00:00 8,2 4,0 3 2 10 5 N 1031,7 50 0,0
24.05.2018 05:00:00 7,0 4,0 6 4 12 6 NNW 1031,2 50 0,0
24.05.2018 04:00:00 6,0 3,2 4 2 16 8 NW 1030,8 50 0,0
24.05.2018 03:00:00 6,7 2,8 6 3 12 6 NW 1030,5 50 0,0
24.05.2018 02:00:00 5,1 2,1 4 2 9 5 NNW 1030,1 50 0,0
24.05.2018 01:00:00 5,9 1,2 3 2 8 4 NW 1029,8 50 0,0
24.05.2018 00:00:00 5,2 1,3 3 2 8 4 NNW 1029,5 50 0,0
23.05.2018 23:00:00 8,0 0,2 2 1 11 6 NNW 1029,2 50 0,0
23.05.2018 22:00:00 9,6 0,7 4 2 16 8 NNW 1029,1 50 0,0
23.05.2018 21:00:00 11,6 -1,5 5 3 18 10 N 1028,6 50 0,0
23.05.2018 20:00:00 13,0 1,3 6 3 18 10 NNO 1028,0 50 0,0
23.05.2018 19:00:00 14,4 2,6 5 3 21 11 NNO 1027,6 47 0,0
23.05.2018 18:00:00 15,4 4,1 8 4 28 15 NNO 1027,1 44 0,0
23.05.2018 17:00:00 16,2 5,5 10 6 23 12 NNO 1026,9 40 0,0
23.05.2018 16:00:00 16,0 5,0 10 5 24 13 N 1026,6 40 0,0
23.05.2018 15:00:00 16,1 5,7 10 5 26 14 NNO 1026,2 32 0,0
23.05.2018 14:00:00 15,5 6,0 11 6 27 15 N 1025,9 27 0,0
23.05.2018 13:00:00 15,2 6,7 11 6 29 16 NNW 1025,2 27 0,0
23.05.2018 12:00:00 15,0 7,3 13 7 24 13 NNW 1024,4 33 0,0
23.05.2018 11:00:00 15,7 8,4 10 5 25 13 NNW 1023,4 36 0,0
23.05.2018 10:00:00 15,8 8,5 14 8 23 12 WNW 1022,3 26 0,0
23.05.2018 09:00:00 15,9 9,6 9 5 20 11 WNW 1021,6 28 0,0
23.05.2018 08:00:00 14,4 8,8 8 4 25 14 NW 1021,1 26 0,0
23.05.2018 07:00:00 13,0 8,5 12 6 24 13 NNW 1020,6 23 0,0
23.05.2018 06:00:00 13,1 7,8 8 4 14 8 WNW 1019,6 36 0,0
23.05.2018 05:00:00 8,9 7,5 3 2 9 5 W 1019,0 32 0,0
23.05.2018 04:00:00 6,4 6,1 0 0 3 2 N 1018,6 32 0,0
23.05.2018 03:00:00 5,7 5,1 0 0 4 2 N 1018,5 32 0,0
23.05.2018 02:00:00 5,9 5,2 0 0 3 2 N 1018,5 44 0,0
23.05.2018 01:00:00 8,4 6,7 2 1 9 5 ZZO 1018,5 49 0,0
23.05.2018 00:00:00 8,7 7,0 4 2 9 5 Z 1018,3 50 0,0
22.05.2018 23:00:00 9,4 7,2 2 1 6 4 Z 1018,2 50 0,0
22.05.2018 22:00:00 11,0 7,5 3 1 8 5 ZZO 1018,2 50 0,0
22.05.2018 21:00:00 16,1 7,6 5 3 12 6 ZO 1017,9 43 0,0
22.05.2018 20:00:00 18,3 6,8 7 4 15 8 ZZO 1017,9 41 0,0
22.05.2018 19:00:00 19,8 6,2 9 5 21 12 ZZO 1018,0 38 0,0
22.05.2018 18:00:00 21,0 5,4 11 6 23 13 ZZO 1018,2 29 0,0
22.05.2018 17:00:00 21,7 6,4 9 5 25 13 ZZO 1018,5 33 0,0
22.05.2018 16:00:00 21,4 6,9 11 6 26 14 ZO 1018,7 31 0,0
22.05.2018 15:00:00 22,0 7,0 13 7 24 13 OZO 1019,1 38 0,0
22.05.2018 14:00:00 22,9 5,8 11 6 23 13 ZO 1019,6 30 0,0
22.05.2018 13:00:00 22,6 6,4 6 4 19 10 ZO 1020,0 36 0,0
22.05.2018 12:00:00 20,7 6,6 4 2 13 7 ZZO 1020,8 37 0,0

tt = temperatuur
td = dauwpunt
ff = windsnelheid
fx = windstoten
dd = windrichting
ppp = luchtdruk
vv = zicht
rr = neerslag

Weerstations in de omgeving